Weather in Mlada Vozice

Czech Republic     49°31′54″N   14°48′31″E
temp.,
°C
wind,
m/s
gust,
m/s
humid.,
%
clouds,
%
prec.,
mm/h
press.,
hPa
HPBL,
m
27 september, mon
mon2723:00+13e118599 0.0 101811
02:00+13ese228736 0.0 101811
05:00+12e1188100 0.0 101710
08:00+13se1185100 0.0 101715
11:00+14sse1190100 0.8 101891
14:00+14ssw0195100 3.4 101853
17:00+16wsw018297 0.3 101856
20:00+15sw2284100 0.4 101923
28 september, tue
tue2823:00+14w259259 0.1 1020121
02:00+12wnw2293100 0.1 102130
05:00+12w229154 0.0 102211
08:00+14wnw228961 0.0 102248
11:00+18nnw237120 0.0 1022623
14:00+19nnw226053 0.0 1021947
17:00+19nne226177 0.0 10211075
20:00+15ne337979 0.0 102127
29 september, wed
wed2923:00+13ene2388100 0.0 102149
02:00+13ese2395100 0.0 102043
05:00+11e2387100 0.0 101942
08:00+12se2272100 0.0 101954
11:00+15s5767100 0.0 1019495
14:00+13w61182100 0.1 1020788
17:00+14w5107897 0.3 1020842
20:00+12sw388674 0.3 1022201
30 september, thu
thu3023:00+10wsw229095 0.0 102425
02:00+9sw239183 0.0 102548
05:00+8w379272 0.0 1026233
08:00+7w49935 0.0 1029383
11:00+11w57520 0.0 10291073
14:00+13w56415 0.0 10281678
17:00+12wnw35445 0.0 10281570
20:00+7nw11575 0.0 102910
1 october, fri
fri123:00+6s225957 0.0 103010
02:00+6sse226094 0.0 102912
05:00+4se1165100 0.0 102810
08:00+5se2265100 0.0 102730
11:00+12sse465049 0.0 1025533
14:00+16sse5645100 0.0 1022863
17:00+15sse4755100 0.0 1020484
20:00+10se3117555 0.0 1020196